Yerevan/Zvartnots International Airport

Airport
ICAO code: 
UDYZ
IATA Code: 
EVN
Summary
ICAO Region: 
APAC
Territory: 
Location: 
Zvartnots,
Serving: 
Yerevan
Elevation: 
2838 ft
Coordinates: 
Aerial View: 
40° 8' 50" N, 44° 23' 45" E
Metar
Observation
UDYZ 191330Z 25007KT 9999 FEW046 M02/M07 Q1011 R09/010070 NOSIG
Station
ZVARTNOTS
Date/Time
2022-01-19 13:30:00
Wind direction
250°
Wind speed
07 kts
Lowest cloud amount
few clouds
Temperature
-2°C
Dew point
-7°C
Humidity
68%
QNH
1011 hPa
Weather condition
n/a

Description

Zvartnots International airport is located near Zvartnots, 10 km west of Yerevan, the capital city of Armenia.

Climatology

Cold Semi-arid climate (Köppen climate classification BSk). - Hot, sometimes extremely hot summers and cold, sometimes very cold winters. Some snowfall during the winter. Areas featuring cold semi-arid climates are sometimes subject to major temperature swings during a 24 hour period.

Runways

Designator Length Width Surface Rops
9/27 3849 56 ASP Yes/Yes
Airport map: 
Aerial View: 

Accidents and Serious Incidents at or in the vicinity of UDYZ

SKYbrary Partners:

Safety knowledge contributed by: